This is the latest recevied weather packets stored in our database for station/object KD7MPG-3. If no packets are shown the sender has not sent any weather packets the latest 10 day(s).
| Time | Temp. | Humidity | Pressure | Rain* | Wind** | Luminosity | Snow |
|---|---|---|---|---|---|---|---|
| 1777935359 | 23.89° C | 66% | 1020.1 hPa | 0 mm | - | - | - |
| 1777935060 | 23.89° C | 65% | 1020.2 hPa | 0 mm | - | - | - |
| 1777934759 | 23.89° C | 67% | 1020.2 hPa | 0 mm | - | - | - |
| 1777934460 | 23.89° C | 66% | 1020.3 hPa | 0 mm | - | - | - |
| 1777934158 | 23.89° C | 66% | 1020.4 hPa | 0 mm | - | - | - |
| 1777933855 | 23.89° C | 66% | 1020.3 hPa | 0 mm | - | - | - |
| 1777933556 | 23.89° C | 66% | 1020.5 hPa | 0 mm | - | - | - |
| 1777933255 | 23.33° C | 67% | 1020.6 hPa | 0 mm | - | - | - |
| 1777932953 | 23.33° C | 68% | 1020.6 hPa | 0 mm | - | - | - |
| 1777932654 | 23.33° C | 68% | 1020.7 hPa | 0 mm | - | - | - |
| 1777932348 | 23.33° C | 67% | 1020.7 hPa | 0 mm | - | - | - |
| 1777932047 | 23.33° C | 69% | 1020.8 hPa | 0 mm | - | - | - |
| 1777931747 | 22.78° C | 69% | 1020.7 hPa | 0 mm | - | - | - |
| 1777931447 | 22.78° C | 68% | 1020.9 hPa | 0 mm | - | - | - |
| 1777931147 | 22.78° C | 69% | 1021.1 hPa | 0 mm | - | - | - |
| 1777930848 | 22.78° C | 69% | 1021.1 hPa | 0 mm | - | - | - |
| 1777930543 | 22.22° C | 67% | 1021.1 hPa | 0 mm | - | - | - |
| 1777930243 | 22.22° C | 69% | 1021.3 hPa | 0 mm | - | - | - |
| 1777929944 | 22.22° C | 68% | 1021.3 hPa | 0 mm | - | - | - |
| 1777929642 | 22.22° C | 69% | 1021.3 hPa | 0 mm | - | - | - |
| 1777929341 | 22.22° C | 70% | 1021.3 hPa | 0 mm | - | - | - |
| 1777929042 | 21.67° C | 72% | 1021.4 hPa | 0 mm | - | - | - |
| 1777928736 | 21.67° C | 71% | 1021.5 hPa | 0 mm | - | - | - |
| 1777928434 | 21.67° C | 70% | 1021.6 hPa | 0 mm | - | - | - |
| 1777928133 | 21.11° C | 74% | 1021.6 hPa | 0 mm | - | - | - |
* Rain latest hour (hover to see other rain measurements)
** Current wind speed in m/s (hover to see current wind gust speed)